Simultaneous Nadir Overpasses (SNOs) Predictions

Prediction of SNOs between NOAA-20 and AQUA Satellite Orbit:

Table of predicted SNOs for the next 14.0 days since TLE Epoch: 7/30/2022
Index Date (NOAA-20) Time (NOAA-20) Lat,Lon (NOAA-20) SZA (NOAA-20 ) Date (AQUA) Time (AQUA) Lat,Lon (AQUA) SZA (AQUA ) Distance(km) Time Diff (sec)
1 07/31/2022 15:34:59 71.31, 174.32 85.17 07/31/2022 15:36:12 71.09, 175.73 84.94 55.78 73
2 07/31/2022 16:23:06 -78.70, 5.25 103.86 07/31/2022 16:23:05 -78.71, 5.33 103.88 1.88 1
3 08/03/2022 07:49:15 78.63, -46.70 76.90 08/03/2022 07:49:32 78.64, -46.64 76.87 1.45 17
4 08/03/2022 08:39:46 -79.17, 124.18 103.93 08/03/2022 08:38:46 -79.16, 124.05 103.86 2.75 60
5 08/05/2022 23:15:26 -78.55, -98.77 102.29 08/05/2022 23:16:01 -78.55, -98.72 102.33 1.23 35
6 08/06/2022 00:05:59 78.96, 71.19 77.09 08/06/2022 00:05:16 78.96, 71.27 77.11 1.62 43
7 08/08/2022 14:41:31 78.59,-150.05 78.37 08/08/2022 14:42:24 78.58,-150.14 78.35 2.13 53
8 08/08/2022 15:32:07 -78.95, 19.56 102.18 08/08/2022 15:31:42 -78.95, 19.59 102.17 0.76 25
9 08/11/2022 06:07:46 -78.34, 156.98 100.54 08/11/2022 06:08:56 -78.35, 157.07 100.62 2.41 70



Historial Predications of SNOs between NOAA-20 and AQUA
